Location: Ida Center
(41.8662°N, 83.5713°W)
Time: 10:41:35
(UTC+00:00)

Tsikada Rocket - Pass Details

Date: 17 November 2019
Orbit: 958 x 1009 km, 82.9° (Epoch: 14 December)

Event Time Altitude Azimuth Distance (km) Brightness Sun altitude
Rises 23:23:23 0° 165° (SSE) 3,698 7.0 -13.3°
Reaches altitude 10° 23:26:00 10° 159° (SSE) 2,759 6.3 -13.8°
Maximum altitude 23:31:57 44° 89° (E) 1,357 4.3 -14.9°
Drops below altitude 10° 23:37:58 10° 20° (NNE) 2,795 6.1 -16.0°
Sets 23:40:37 0° 14° (NNE) 3,750 6.8 -16.5°
